Back to catalog

STARLINK-34258

AliveCommunicationsVLEO
NORAD 64211·PAYLOAD·🇺🇸 United States

Launched May 31, 2025 from Vandenberg Space Force Base

Loading…

Next Passes (next 24 hours)

TLE

FreshSource: CelesTrak SupGP

Epoch: Sep 14, 2026, 22:47 UTC

1 64211C 25117J   26257.94979167  .00020768  00000+0  61346-3 0  2576
2 64211  53.1576 237.2990 0001459 100.6190  40.1419 15.34387077    16

Track STARLINK-34258 in real time with AllMySat

Download on the App Store